Theta_e
306 306 305 304 302 302 298 293 290 290 290 290 290 290 290 290 290 290 290 290 290 290 290 289 289 289 289 289 289 290 290 290 289 289 288 288 288 288 287 287 287 286
304 304 303 302 300 299 296 292 290 290 290 290 290 290 290 290 290 290 290 290 289 289 289 289 289 289 289 289 289 290 290 289 289 288 288 287 287 287 287 287 286 286
302 301 301 300 298 297 294 291 289 289 289 289 290 290 290 290 289 289 289 289 289 288 288 288 288 288 289 289 289 289 289 289 288 288 287 287 287 287 286 286 285 285
301 300 299 298 298 296 293 290 289 289 289 289 289 289 290 289 289 289 289 288 288 288 288 288 288 288 288 288 289 289 289 288 288 287 287 286 286 286 286 285 285 285
300 299 297 296 296 294 291 289 289 288 289 289 289 289 289 289 289 288 288 288 288 287 287 287 288 288 288 288 288 288 288 287 287 287 287 286 286 285 285 285 285 285
299 297 295 294 293 292 290 289 289 289 289 289 289 289 289 289 288 288 288 287 287 287 287 287 288 288 288 288 288 288 288 287 287 286 286 286 286 285 285 285 285 285
297 295 293 292 291 290 290 289 288 289 289 289 289 289 288 288 288 288 287 287 287 287 287 287 288 288 288 288 288 288 287 287 287 287 286 286 286 285 285 285 285 285
295 293 291 290 289 289 289 288 288 289 289 289 288 288 288 288 288 287 287 286 286 287 287 287 288 288 288 288 288 287 287 287 287 287 286 286 286 286 285 285 285 284
293 291 290 289 288 288 288 288 288 289 289 288 288 288 288 287 287 287 286 286 286 287 287 287 288 288 288 288 287 287 287 287 287 287 287 287 286 286 285 285 285 284
292 290 289 288 288 288 288 288 288 288 288 288 288 288 287 287 286 286 286 286 286 287 287 288 288 288 287 287 287 287 287 287 287 287 287 287 286 286 286 285 285 284
291 290 289 288 287 287 288 288 288 288 288 287 287 287 287 286 286 286 286 286 286 287 287 288 288 287 287 288 287 287 287 287 287 287 287 286 286 286 286 285 285 284
291 290 289 288 287 287 287 288 288 288 287 287 287 287 286 286 286 286 286 286 287 287 288 288 288 287 287 287 287 287 287 287 287 287 287 286 286 286 286 285 285 285
291 290 289 288 287 287 287 287 287 287 287 287 286 286 286 286 285 285 285 286 287 287 288 288 287 287 287 287 287 287 286 286 286 286 286 286 286 286 286 285 285 285
291 290 289 288 287 286 286 286 286 286 286 286 286 286 286 286 286 285 285 286 287 287 287 287 287 287 287 287 287 287 286 286 286 286 286 286 286 286 286 285 285 285
291 290 289 288 287 286 286 286 286 286 286 286 286 286 285 285 285 285 285 286 287 287 287 287 287 287 287 287 287 286 286 286 286 286 286 286 286 286 286 285 285 285
290 289 288 287 287 286 286 286 286 286 286 285 285 285 285 285 285 285 285 286 287 287 287 287 287 287 287 287 287 287 286 286 286 286 286 286 286 286 286 285 285 285
289 288 288 287 287 287 286 286 286 286 285 285 285 284 284 285 285 285 285 286 286 287 287 287 287 287 287 287 286 286 286 286 286 286 286 286 286 286 286 285 285 285
288 288 287 287 287 286 286 286 286 285 285 284 284 284 284 284 284 284 285 285 286 287 287 287 287 287 287 287 286 286 286 286 286 286 286 286 286 286 285 285 285 285
288 288 287 287 287 286 286 286 285 285 285 284 284 284 284 284 284 284 284 285 286 286 287 287 287 287 287 286 286 286 286 286 286 286 286 286 286 285 285 285 285 285
288 288 287 287 287 287 286 286 286 285 285 284 284 283 283 283 284 284 284 285 285 286 287 287 287 287 287 286 286 286 286 286 285 285 285 285 285 285 285 285 285 285
288 287 287 287 287 287 286 286 286 285 285 284 284 283 283 284 284 284 284 284 285 286 286 286 287 287 287 286 286 286 285 285 285 285 285 285 285 285 285 285 284 284
287 287 287 287 287 286 286 286 286 285 285 285 284 283 283 283 283 284 284 284 285 285 286 286 287 287 287 286 286 285 285 284 285 285 285 285 285 285 285 284 284 284
287 287 287 287 286 286 286 285 285 285 285 285 284 283 283 283 283 283 284 284 284 285 285 286 286 287 287 286 286 285 284 284 284 284 284 284 285 285 284 284 284 284
287 287 287 286 286 286 286 286 285 285 285 284 284 283 283 283 283 283 283 284 284 284 285 286 286 286 286 286 285 285 284 283 284 284 284 284 284 284 284 284 284 284
287 287 287 287 287 287 287 286 286 285 285 284 283 283 283 283 283 283 283 283 283 284 284 285 286 286 286 285 285 284 283 283 283 283 283 283 284 284 284 284 283 283
287 288 288 288 288 288 287 287 286 285 284 284 283 283 283 283 282 282 283 283 283 283 283 284 285 285 285 284 284 283 283 282 282 283 283 283 283 283 283 283 283 283
Wind_Speed
31 33 34 36 37 38 40 41 41 41 41 41 40 39 37 35 33 31 29 28 27 25 25 24 24 23 22 21 20 18 17 16 16 15 14 13 12 11 10 8 7 6
33 34 35 37 38 40 42 42 42 42 42 41 39 38 37 35 33 32 30 29 28 26 26 25 24 23 22 21 20 18 17 16 16 15 14 13 12 11 10 8 8 7
34 35 36 38 40 43 44 43 43 42 41 40 39 38 37 35 34 32 31 30 29 28 27 26 25 24 22 21 20 18 17 16 16 15 14 13 12 11 10 9 8 7
35 36 38 40 42 44 45 45 43 42 41 41 39 38 37 36 35 33 32 30 29 29 28 27 25 24 22 21 20 18 17 16 15 16 14 13 11 10 10 9 8 7
36 37 40 42 44 46 46 46 44 43 42 41 40 39 37 37 35 34 33 32 31 30 29 27 25 24 23 21 20 18 17 17 16 15 13 12 12 11 10 9 8 7
38 39 42 44 45 47 47 46 45 44 43 42 41 39 38 37 36 35 34 33 32 30 29 28 26 25 23 22 20 19 18 17 16 15 13 12 12 11 10 8 7 6
40 41 43 44 45 46 46 45 45 44 43 42 41 40 39 38 37 35 34 33 32 31 29 28 27 25 24 22 21 19 18 17 16 15 14 12 12 11 10 8 7 6
40 42 43 44 44 45 45 45 45 44 43 43 42 41 39 38 37 36 35 34 32 31 29 28 27 26 24 23 21 20 20 19 17 16 15 13 12 11 10 9 8 7
40 41 43 43 44 45 45 45 45 45 44 43 42 41 40 38 37 36 35 34 32 31 30 29 27 26 25 23 22 21 21 19 18 17 16 14 13 12 11 10 9 8
40 41 43 44 44 45 45 45 45 45 44 43 42 41 40 39 37 36 35 34 33 32 31 29 28 27 25 24 23 22 20 20 19 18 16 14 13 12 12 11 10 9
40 41 43 44 44 45 45 46 46 45 45 44 43 42 41 39 38 37 36 34 33 32 31 30 29 28 26 25 24 22 21 20 20 18 17 15 14 13 12 12 10 9
41 42 43 44 44 45 45 46 46 45 45 44 43 42 41 40 39 38 36 35 34 33 32 31 30 28 27 26 25 24 23 22 20 18 17 16 15 14 13 12 11 10
42 42 43 44 44 44 44 44 44 44 44 44 43 43 42 41 40 38 37 35 34 33 33 31 30 29 28 27 26 26 25 24 22 19 18 17 16 15 14 14 12 11
41 41 42 42 42 42 42 43 43 43 43 43 43 43 43 42 40 39 37 36 35 34 33 32 31 31 30 29 28 27 27 25 23 21 20 19 18 17 16 15 14 13
40 40 41 41 41 41 41 42 43 43 43 43 44 44 43 42 40 39 38 37 36 35 34 33 32 32 32 31 30 29 28 26 24 23 21 20 19 18 17 17 16 14
38 39 39 40 41 41 42 42 43 43 43 44 44 43 43 41 40 39 38 38 37 36 35 35 34 34 33 32 31 30 29 27 25 24 23 21 21 20 19 18 17 16
37 37 37 39 41 41 41 41 42 42 43 43 43 42 42 41 40 40 39 39 38 37 36 36 36 35 34 32 32 31 29 28 27 25 24 23 23 21 21 20 19 18
36 36 37 38 39 40 40 40 40 41 41 42 42 42 42 41 40 40 40 39 38 37 37 37 37 36 35 33 33 32 31 29 28 27 26 25 24 23 22 21 21 20
35 36 36 37 37 37 37 37 38 39 40 41 42 41 40 40 40 40 39 39 39 38 38 38 38 37 35 34 34 33 32 31 29 29 28 26 25 25 24 23 23 22
33 34 35 35 35 35 36 36 37 38 39 39 39 38 39 39 39 39 39 39 39 38 39 39 39 38 36 36 35 34 33 32 31 30 30 29 27 26 26 26 25 24
32 33 33 33 33 34 35 35 36 37 37 37 37 38 39 40 40 40 40 39 39 39 39 40 40 39 38 37 36 35 35 34 33 32 32 31 30 29 29 28 27 26
31 31 31 32 33 33 34 35 35 36 36 36 37 38 39 39 40 40 40 40 40 39 40 41 41 39 39 39 37 36 35 35 35 35 34 33 33 32 32 31 29 29
30 31 31 31 31 32 33 34 34 34 35 35 37 38 39 40 41 41 41 40 40 41 41 42 41 40 40 40 38 37 36 35 36 36 35 36 36 35 34 33 32 32
30 30 30 30 30 31 32 33 33 34 35 36 38 39 40 41 41 40 39 39 40 41 42 42 41 40 40 40 39 38 37 37 37 37 37 38 38 37 37 36 35 35
28 28 28 29 30 31 32 33 33 34 35 36 37 38 38 38 38 37 38 39 40 40 40 40 41 41 40 40 39 38 37 37 38 38 38 40 39 39 39 38 38 37
26 26 27 28 29 31 32 32 33 34 35 35 36 36 36 35 35 36 37 38 38 38 38 40 41 41 40 39 38 37 37 37 38 39 40 41 41 40 40 40 40 39
Wind_Direction
204 201 198 195 191 187 181 177 174 172 171 170 168 166 164 163 163 164 164 164 164 163 162 162 161 161 160 158 157 155 153 150 147 147 150 150 148 145 143 144 144 150
202 200 197 194 189 185 181 178 176 175 174 172 170 168 166 166 166 167 168 167 167 167 166 166 166 165 163 161 162 162 158 156 154 153 156 156 153 151 149 149 152 156
201 199 197 194 189 184 181 180 179 178 176 174 172 171 170 170 169 170 171 170 170 170 170 170 169 168 167 166 166 166 163 161 159 157 160 160 157 158 156 156 160 163
201 201 198 194 189 184 182 181 181 180 178 176 175 174 174 173 173 173 173 174 174 174 173 173 172 171 170 170 170 168 166 165 162 161 163 163 161 164 164 162 165 168
202 201 198 193 188 185 184 184 183 182 180 179 178 178 177 176 176 176 176 177 177 177 176 175 174 174 174 174 172 170 168 167 164 164 167 166 165 170 171 168 168 170
202 201 197 192 189 187 186 186 185 184 183 182 181 181 181 180 180 180 179 179 179 179 178 177 177 176 177 177 175 173 172 169 166 166 171 171 168 172 174 173 175 176
201 199 196 192 190 189 189 188 187 186 186 185 184 184 184 183 183 183 182 182 182 182 181 180 180 179 180 179 177 175 174 172 171 170 173 175 173 173 176 177 183 184
201 199 196 193 192 191 191 191 190 189 189 188 187 186 186 186 186 185 185 185 184 184 184 184 184 183 182 181 180 179 177 176 178 176 175 178 178 179 181 184 190 193
201 199 197 195 194 194 193 193 192 191 191 191 190 189 189 189 189 188 187 187 187 187 187 187 187 187 185 184 184 184 183 182 183 182 181 182 182 185 188 191 196 199
202 200 199 198 197 197 196 195 194 194 193 193 192 191 191 191 191 191 190 190 190 190 191 190 190 190 188 188 188 189 189 189 188 186 185 185 187 190 194 198 201 204
202 202 201 200 200 199 198 197 197 196 195 195 194 194 193 192 193 193 192 193 193 194 194 194 194 193 192 191 191 191 193 194 194 191 189 189 192 197 201 204 207 212
203 204 203 202 202 202 201 200 199 198 197 196 196 196 195 195 195 195 195 196 197 197 198 197 196 196 196 195 194 193 195 198 198 197 195 195 198 203 208 211 213 218
205 205 205 204 204 204 203 202 201 200 199 198 198 198 198 197 197 197 198 199 200 200 201 200 199 198 199 198 197 196 197 200 201 200 200 201 204 209 213 217 220 223
206 206 206 206 205 205 204 204 203 203 202 201 201 201 201 201 200 200 200 201 202 203 203 203 202 201 201 201 200 199 201 203 204 204 205 207 209 214 218 222 226 229
205 206 206 206 205 205 205 205 205 204 204 203 203 203 204 204 203 202 202 202 204 205 205 205 205 205 205 204 203 203 204 206 208 209 211 213 215 218 223 227 231 234
204 205 204 205 205 206 207 206 206 205 205 205 206 206 205 205 205 204 205 206 206 206 207 207 208 209 209 208 207 207 209 210 211 213 215 217 220 222 227 231 234 238
203 203 203 204 205 206 207 207 206 206 206 207 208 207 207 207 206 206 207 209 210 209 209 210 211 212 212 210 210 212 214 215 216 217 218 221 224 227 230 235 239 241
201 202 202 204 205 206 207 207 207 208 208 209 209 209 209 208 208 209 210 211 212 213 213 214 215 215 214 213 213 215 217 220 221 223 224 226 228 231 235 238 241 243
201 201 202 204 205 206 207 208 209 210 211 212 212 211 210 209 210 211 212 213 215 216 217 218 219 218 216 216 216 218 220 223 225 227 230 232 234 236 238 240 242 245
200 202 203 204 206 207 208 209 211 213 214 214 214 213 212 212 212 213 215 216 218 219 221 222 222 221 220 219 219 221 223 226 228 230 233 236 238 240 242 243 245 247
201 202 203 204 206 208 210 212 213 215 216 216 216 216 215 216 216 216 218 219 221 223 224 226 226 225 224 223 222 223 226 229 231 233 235 239 241 243 245 246 247 250
201 202 203 205 207 209 211 213 214 216 217 218 218 218 218 218 219 220 221 222 224 226 227 229 230 229 227 227 226 225 228 232 235 236 238 241 243 245 247 248 249 251
203 204 205 206 207 209 212 214 217 218 220 220 220 219 219 220 221 222 223 224 226 228 229 232 233 232 232 231 229 228 229 232 236 239 241 243 246 248 249 251 252 254
205 206 206 207 210 213 216 219 220 222 223 223 222 221 221 222 223 224 226 228 229 231 233 235 236 237 236 235 233 230 230 233 237 241 243 246 248 249 251 252 254 256
206 208 210 212 216 220 222 223 224 224 225 224 224 224 225 225 225 226 228 230 232 234 236 238 240 241 239 238 237 234 232 235 238 241 244 247 250 252 253 254 255 257
209 212 215 219 223 226 227 227 227 226 225 225 226 227 228 229 229 230 232 234 236 237 239 240 243 244 243 242 240 237 236 236 239 241 244 248 251 253 255 257 258 260